Race Results for
NMBS #5-Mount Snow
West Dover, VT
(Event Information)
This is a non-competitive event
Cross Country on 06/19/2004

Note: Ranking points are NOT upgrade points. An explanation of ranking points can be found here.


Men - Cat 1/2/3 - Senior

 Place NameCity, StateTime USAC #BibTeam
1Todd Bowden   Glastonbury, CT2:21:04.65 144319  224 CVC-PIG IR
2Greg Montello   Malden, MA2:24:13.30 24794  1261 ECV ELITE
3MARK ELSASSER   2:26:15.19  911 SPOT BRAND
4David Cormier   Tolland, CT2:28:35.01 121841  1239 CAPITAL VE
5ERIC BASCOMBE   2:31:54.39  1303 
6Samual Stevens   Middletown, CT2:39:58.48 178524  402 TEAM BERLI
7Sean Dougherty   Westfield, NJ2:41:30.70 73234  794 WATCHUNG W
DNFTimothy Haitz   Kingston, RIDNF 77034  661 DUPONT/RIT
DNFJON POSNER   DNF  1186 TREK/VW EA

Men - U23 - 1-23

 Place NameCity, StateTime USAC #BibTeam
1Eric Jellum   Indian Hills, CO3:12:52.24 192996  220 FORD/GIANT
DNFRYAN GRACEY   DNF  60 TEAM OLIVE

Men - Pro - Senior

 Place NameCity, StateTime USAC #BibTeam
1LIAM KILLEEN   2:22:51.65  80 SUBARU/GAR
2ROLAND GREEN   2:26:39.96  27 TREK/VOLKS
3Adam Craig   Bend, OR2:26:53.35 94510  10 GIANT/PEAR
4Travis Brown   Durango, CO2:27:34.93 5171  TREK/VOLKS
5SEAMUS MCGRATH   2:27:51.58  HARO-ADIDA
6GEOFF KABUSH   2:28:57.78  MAXXIS
7Barry Wicks   Corvallis, OR2:29:37.32 134223  20 KONA-CLARK
8Jeremiah Bishop   Harrisonburg, VA2:30:17.70 3771  TREK/VW
9Jay Henry   Avon, CO2:31:44.07 15853  12 SPECIALIZE
10CHRIS EATOUGH   2:35:07.53  100 TREK/VW
11JIMI MORTENSON   2:35:32.38  17 SPECIALIZE
12DOUG SWANSON   2:36:00.40  31 TREK/VW
13Alan Obye   Boulder, CO2:38:04.78 117394  19 U23 NATION
14PAUL ROWNEY   2:38:44.63  45 YETI
15TRISTAN SCHOUTEN   2:40:26.16  62 PCW CYCLIN
16ZACHARIE L'ABBE'   2:41:18.95  172 BIO-K/INTE
17JESSE JAKOMAIT   2:41:27.05  94 GEARSRACIN
18ARIEL LINDSLEY   2:42:59.15  170 MAVERICK/K
19BRENT MILLER   2:43:24.18  24 INTENSE/KE
20KRIS SNEDDON   2:43:51.39  55 KONA/CLARK
21CESAR GRAJALES   2:44:05.70  91 MAXXIS
22MIKE WEST   2:44:18.10  168 
23BRENT BOOKWALTER   2:44:26.30  89 BALANCE BA
24MATTHEW HADLEY   2:44:42.55  167 POWER BAR
25DAVE WIENS   2:45:10.26  21 RLX RALPH
26THOMAS TURNER   2:45:47.92  56 CANNONDALE
27JASON SAGER   2:46:24.00  64 HOTEL SAN
28BRYAN FAWLEY   2:46:48.69  70 TEAM WV BO
29John Devine   Dixon, IL2:47:06.39 166980  74 U23 NATION
30Samuel Schultz   Missoula, MT2:48:05.90 164788  76 U23 NATION
31DANIEL DOUB   2:48:37.13  176 BTD RACING
32BRIAN SMITH   2:48:52.78  66 TREK/ROCKY
33MICHAEL PATRICK   2:49:36.12  58 GARY FISHE
34MICHAEL LEE   2:49:42.68  48 TREK/VW/JB
35CHARLES PENDRY   2:49:53.46  41 BTD RACING
36NICK RANNO   2:50:48.06  175 TREK ROCKY
37RUSS TILES   2:51:21.26  39 SLING SHOT
38BRIAN ASTELL   2:51:28.51  46 
39AMON PEASE   2:51:38.92  57 INTENSE
40NATHAN RINGQUIST   2:51:43.03  174 ROCK SHOX
41John Foley   Fiskdale, MA2:51:58.57 121026  75 BIKE ALLEY
42Nathan Phillips   San Antonio, TX2:52:17.69 28064  67 SOLAR ECLI
43ANDREAS HESTLER   2:53:09.41  28 ROCKY MTN/
44Steven Carwile   Owings Mills, MD2:53:13.83 149268  77 LINDSEY WI
45Troy Barry   Falmouth, ME2:53:29.46 82836  47 
46ROB SCOTT   2:57:27.55  169 CANNONDALE
47TIM CARLETON   3:00:07.30  72 SPORT SWAP
48ALEX HAGMAN   3:01:43.49  97 FORT FRAME
49ANDREW FREYE   3:04:29.53  54 OAKLEY
50RAUL BELLO   3:04:40.92  95 THE CYCLIS
51BILLY HOLMES   3:05:17.85  59 INTENSE CY
52JOEY THOMPSON   3:07:17.37  63 BALANCE BA
53TSUJIURA KEIICHI   3:11:09.96  52 TEAM BRIDG
54CHRISTOPHER PHILLIPS   LAPPED  73 BALANCE BA
55FRANK MAPEL   LAPPED  18 SPECILIZED
56TRENT LOWE   LAPPED  86 YETI
57CHRIS SHEPPARD   LAPPED  HARO-ADIDA
DNFDEREK WILKERSON   DNF  82 SPECIALIZE
DNFDANIEL CORUM   DNF  166 JUST FRESH
DNFBRANDON OTT   DNF  98 TAILWIND
DNFDIEGO GARAVITO   DNF  96 OLP RACING
DNFADAM SNYDER   DNF  93 BALANCE BA
DNFPERREN DELACOUR   DNF  35 YETI/ RPM
DNFETHAN JOHNSON   DNF  92 BALANCE BA
DNFPatrick Bush   San Anselmo, CADNF 164281  173 CLIF BAR/T
DNFAARON BRADFORD   DNF  90 DEVO
DNFRAITA SUZUKI   DNF  88 BRIDGESTON
DNFBEN MOODY   DNF  87 RHINO BIKE
DNFMARK WEIR   DNF  84 WTB/SANTAC
DNFBART GILLESPIE   DNF  83 BIOGEN-IDE
DNFMAX PLAXTON   DNF  171 ROCKY MTN
DNFTROY WELLS   DNF  81 SPECIALIZE
DNFNAT ROSS   DNF  79 SUBARU- GA
DNFDEREK PRECHTL   DNF  71 BELLS BEER
DNFJOREL HENDERSHOT   DNF  69 CANNONDALE
DNFJESSE RIENTS   DNF  65 NATURE VAL
DNFEDWARD CECCOLINI   DNF  61 TITUS/MAXM
DNFRYAN TREBON   DNF  36 KONA/CLARK
DNFMATHIEU TOULOUSE   DNF  26 GEARSRACIN
DNFCHARLES STORM   DNF  22 BTD RACING
DNFNICK WAITE   DNF  15 U23 NATION
DNFERIC JONES   DNF  14 BIOGEN-IDE
DNFCARL SWENSON   DNF  RLX RALPH
DNFBRIAN MATTER   DNF  53 PCWCYCLING

Men - SM - Senior

 Place NameCity, StateTime USAC #BibTeam
1Dominic Gillen   New Preston, CT2:47:53.34 91834  227 3 SPORTS
2Todd Helmick   Newport News, VA2:49:07.80 181000  230 TREK VW EA
3Timothy Platt   2:50:25.03 180575  239 BLUESTONE
4John Rowley   Pittsburgh, PA2:52:13.19 175925  215 PCW CYCLIN
5Tim Olson   Chico, CA2:52:24.29 153947  234 TREK/VW
6Andrew Mills   Orlando, FL2:53:30.08 159112  233 TREK/VW/JB
7Noah Taylor   Peterborough, NH2:53:38.78 106563  245 ECLECTIC B
8Troy Michaud   York, ME2:57:06.79 92465  242 TREK NEW E
9David Duvall   Baltimore, MD2:57:52.27 10300  231 TREK/VW E
10Jarett Sweeney   Nesquehoning, PA2:58:03.71 169675  348 SHIRKS
11Lucas Livermon   Carrboro, NC2:58:33.37 161552  219 CAT/ ROSWE
12Jeff Schalk   Frederick, MD2:58:54.66 169390  201 REDWOOD EM
13Jon Rowe   Bennington, VT2:59:13.15 30742  207 NORTH ATLA
14Justin Becker   Loveland, OH3:02:13.60 107839  244 BIOWHEELS/
15Christian Favata   Rosendale , NY3:03:35.23 135665  210 TABLEROCKT
16Robert Cotton   Ann Arbor, MI3:04:17.11 190324  208 STRUCTURAL
17Thomas Spannring   Longmont, CO3:04:27.72 189584  217 EUCLID TIM
18Kris Holden   Spokane, WA3:06:16.82 148376  222 WHEELSPORT
19Jed Schober   Lititz, PA3:07:29.84 137636  216 GRETNA BIK
20Eric Kriberney   Butler, PA3:09:06.31 207097  240 WWW.SPEEDG
21Ryan Barthel   Durango, CO3:10:25.41 2770  223 
22Michael Zocchi   Arlington, MA3:11:00.59 39534  226 LANDRYS/LI
23William Barrows   W Hartford, CT3:12:07.68 159703  228 
24Brian Hughes   Middleboro, MA3:14:50.09 139091  229 SAUCONY/FA
25Kurt Schmid   Marblehead, MA3:15:03.67 178460  206 LANDRYS BI
26Kevin Hall   Bellingham, WA3:18:46.38 173510  243 BTD RACING
27Travis Woodruff   Prescott, AZ3:19:54.83 135975  218 PCW CYCLIN
28Brett Racine   Stowe, VT3:20:36.49 174981  202 CATAMOUNT
29Benjamin Souza   Boone, NC3:27:44.19 88873  247 
30Mark Olson   Hickory Corners, MI3:33:53.72 140153  214 ORBEA
DNFTerry Walls   Baltimore, MDDNF 178430  205 CANNONDALE
DNFMatthew Bailey   Newport News, VADNF 170803  236 TREK GRASS
DNFEdward Burress   Arden, NCDNF 146920  232 CANE CREEK
DNFMichael Raney   Santa Fe, NMDNF 175669  238 BLUESTONE
DNFTheodore D'Onofrio   East Hartland, CTDNF 82935  235 BENIDORM/C
DNFStephen Sontag   Hanover, NHDNF 174071  246 RED ROCK R
DNFScott Fleckenstein   Richmond, VTDNF 174595  225 CATAMOUNT/
DNFTane Hunter   Las Cruces, NMDNF 130676  68 UNM LOBOS
DNFCharles Knoll   DenverDNF 19476  221 NO-HAIR.CO
DNFBrian Lariviere   Morristown, NJDNF 93139  213 TM BULLDOG
DNFAli Goulet   Salt Lake City, UTDNF 13796  204 STEIN ERIK
DNFGlenn Fant   Santa Rosa, CADNF 11226  203 WTB
DNFPatrick Wallace   Ellicottville, NYDNF 80674  209 MUD SWEAT
DNFMatthew Boobar   Stratton Mountain, VTDNF 4215  248 ROCKSHOX/W
DNFDaniel Evans   Sissonville, WVDNF 183928  211 TEAM WV BO
DNFMike Koenig   Boulder, CODNF 120199  212 TOKYO JOE'
DNFRoss Scatchard   Charlotte, VTDNF 150904  241 BLISS RACI
DNFTim Dougherty   Glenside, PADNF 73274  237 WATCHUNG W

Men - EX - Junior - 1-18

 Place NameCity, StateTime USAC #BibTeam
1James Driscoll   Park City, UT2:10:16.94 163112  1065 TEAM DRISC
2Garrett Gibson   San Francisco, CA2:11:53.22 144160  419 TEAM DEVO
3Tristan Uhl   Austin, TX2:13:33.68 168160  770 RITCHEY NO
4Noah Singer   Little Rock, AR2:13:51.18 171313  605 DOUBLEBEES
5Mitchell Peterson   Salt Lake City, UT2:14:37.25 192669  482 BALANCE BA
6Austin Carroll   Orange, CA2:17:22.07 192670  531 DEVO BALAN
7Dan Wilson   Fenelton, PA2:17:23.73 176279  1145 BLUESTONE
8Ben Pifer   Kingwood, TX2:19:44.76 175635  1110 UNITED YOU
9Gregory Carpenter   Durango, CO2:19:51.81 191158  425 CANNONDALE
10David Scherp   East Hampton, CT2:20:30.95 182798  1162 BIKERS EDG
11Colby Jessett   Shelburne, VT2:21:53.30 148158  1063 BLISS RACI
12Alex Hodge   Bend, OR2:23:53.44 168820  1098 DEVO/BALAN
13Jerome Townsend   Princeton, MA2:24:24.56 196503  401 COYOTE HIL
14Kyle Hammaker   Marysville, PA2:24:44.92 194193  1166 KUHN COACH
15Evan Piche   Holyoke, MA2:25:22.85 194481  574 
16Dan Hock   Northfield, VT2:25:27.79 194849  624 
17Matt Miller   Nazareth, PA2:28:13.64 206833  955 CURTS CYCL
18Kirk Turner   Bellingham, WA2:28:23.08 192168  771 SEBAGOCYCL
19Tyler Jewell   Austin, TX2:28:39.45 168914  1109 UYS/SAN JO
20William Brown   Oro Valley, AZ2:28:52.57 194984  673 DEVO/BALAN
21Travis Livermon   Lewisville, NC2:29:50.43 161583  618 EC VELO
22Joseph Adams   Montgomery, VT2:30:48.90 144449  1037 BLISS RACI
23Blake Harlan   Austin, TX2:31:05.86 175637  1036 UYS
24Paul Davis   Midvale, UT2:34:00.92 196139  958 
25Ryan Buerman   Pinckney, MI2:34:42.29 193513  1160 YOUTH CYCL
26Thomas DiNunzio   Andover, NJ2:35:02.90 212722  665 TEAM BULLD
27MIKE ANDERSON   2:35:12.72  542 
28Andrew Fetty   Spencer, WV2:35:58.43 206827  696 BON JOVI W
29Ethan Gilmour   Ludlow, VT2:36:32.21 175603  956 COYOTE HIL
30Jacob Ringquist   Westminster, MA2:36:56.45 169110  1291 
31Aaron Snyder   State College, PA2:38:06.99 204182  775 TAILWIND
32Matthew Skeen   Summerfield, NC2:41:11.46 173539  570 CYCLES DE
33Colt McElwaine   Canton, MA2:42:14.18 205236  519 NEBC/CYCLE
34Nick Certeza   Eagle, CO2:42:37.10 191248  674 CENTURYTEL
35Eric Desautels   Greenville, NH2:43:55.43 160536  687 JAMIS/AMER
36ZACH MCBRIDE   2:44:56.68  718 
37Rand Shoaf   Bend, OR2:47:04.00 193872  1097 DEVO-BALAN
38Chris Hinshaw   Winter Haven, FL2:47:04.63 176950  568 ABERDEEN R
39Leif Trott   Newark, VT2:50:54.81 193767  1294 COYOTE HIL
40Andrew Thompson   Winchendon, MA2:52:09.99 189770  1288 COMPETITIV
41Marc Swart   Winona, MN3:01:25.23 202139  1131 BRONES BI
42Stephen Sandoval   Rancho Santa Fe, CA3:02:05.64 192518  1158 OCEAN CYCL
DNFMax Judelson   Roxbury , MADNF 188837  657 BICYCLE DE
DNFTravis Mann-Gow   Fairfax, VTDNF 200765  1061 BLISS RACI
DNFRyan Sickles   Barbourville, KYDNF 179875  580 
DNFSam Jurekovic   Colorado Springs, CODNF 189561  559 SPECIALIZE
DNFShane Smith   Austin, TXDNF 202487  642 UNITED YOU
DNFBRENDAN BENSON   DNF  1198 YOUTHCYCLI
DNFBEN RENKEMA   DNF  1202 MICHIGAN Y
DNFTaylor Kahl   West Milford, NJDNF 165853  797 TOWN CYCLE
DNFArron Kopp   Schuylerville, NYDNF 181259  701 
DNFNick Agate   Albany, CADNF 180146  814 TM NSO

Men - EX - Senior - 19-24

 Place NameCity, StateTime USAC #BibTeam
1Donny Vaillancourt   Santa Clara, CA2:07:58.09 180176  1120 LOUIS GARN
2TYLER JOHNSON   2:09:38.54  1340 
3Justin Lindine   North Ogden, UT2:10:08.73 205717  1138 WINDHAM MT
4Justin Finn   Corvallis, OR2:11:40.33 199346  700 KENDA TIRE
5Linden Klein   Seattle, WA2:12:28.10 161517  702 DARTMOUTH
6Garrott Kuzzy   Hayward, WI2:16:05.54 133270  620 NATURE VAL
7Rob Rohel   Wantage, NJ2:17:54.36 136206  1250 ACTION OUT
8Brandon Draugelis   Shippensburg, PA2:19:25.54 179397  453 CANNONDALE
9Michael Thomas   Randleman, NC2:20:17.82 187985  1130 CYCLES DE
10Jason Boeckmann   Boise, ID2:21:58.20 137869  813 
11Ben Richardson   Perryville, KY2:22:43.78 176926  1264 LINDSEY WI
12Jordan Kahlenberg   Morrisville Pa2:22:50.65 152298  796 GRETNA BIK
13Brian Martina   Boulder, CO2:29:23.83 161969  515 TOWNERS BI
14Rick Wetherald   Logan, UT2:31:10.43 188971  489 FORT LEWIS
15Matthew Sheldon   Chester, CT2:31:17.01 196704  1290 COMPETITOR
16David Wood   Hendersonville, NC2:39:09.07 205937  1074 BIKE DOCTO
17Jimmy Lawrence   Windham, NY2:41:39.43 193233  1179 WINDHAM MT
18Pete Hall   Eden Prairie, MN2:42:56.86 199845  1201 YOUTHCYCLI
19Brian Firliet   Rutland, VT2:43:21.51 183891  1263 COYOTE HIL
20JEREMY RENEY   2:49:13.92  1212 OUTSPOKEN
21Everett Garcia   Crested Butte, CO2:49:38.92 194250  905 BICYCLE HE
22Jonathan Favata   Mechanicville , NY2:51:43.54 184938  1101 TABLE ROCK
23Beau Gehret   Reading, PA2:54:40.85 130231  1099 READING RA
24Jason White   Esopus, NY3:15:17.77 194309  598 
DNFJustin Raynes   Bozeman, MTDNF 197456  501 P-TOWNE RA
DNFMatthew Montross   Waterbury, VTDNF 165570  930 KINGSTON C
DNFAndrew Speece   Coxsackie, NYDNF 184926  993 WINDHAM MT
DNFTaylor Merk-Wynne   Waterville, MEDNF 192113  408 MATHIEUS C
DNFWES SWEFFAR   DNF  487 PALISADES

Men - EX - Senior - 25-29

 Place NameCity, StateTime USAC #BibTeam
1Joey Riddle   Elkins, WV2:12:46.36 181299  725 TEAM WV BO
2Jonthan Gantz   New Freedom, PA2:13:23.84 102051  527 GUNG HO BI
3Thomas Carr   Paxton, MA2:15:44.43 6241  1229 WICKED GOO
4Anthony Eisley   Norwich, CT2:19:39.33 117285  1219 COGWILD/CT
5Chris Gagnon   Watertown, MA2:24:09.50 179645  1178 MTBMIND.CO
6Jason Hilimire   Lafayette, CO2:24:12.50 165165  1103 GENEVA SPI
7Kent Hirshberg   Westwood, MA2:25:21.20 148463  1207 DEDHAM BIK
8John Burns   Hingham, MA2:26:21.96 149237  1209 BIKEMAN.CO
9NICHOLAS HINZ   2:27:30.03  1315 
10AARON RENEY   2:32:50.23  1214 OUTSPOKIN
11Travis Voyer   Essex Junction, VT2:33:18.18 194418  602 TEAM KINET
12Sean Cavanaugh   Danbury, CT2:35:17.12 173881  1185 ESSEX COUN
13Benjamin Sullivan   Missoula, MT2:35:26.82 178006  603 MONTANA VE
14BLAKE SWAN   2:35:56.91  1195 OVERLOOK M
15Seth Mitchell   Deep River, CT2:36:07.35 92984  1208 YORKTOWN C
16Christopher Filipiak   Asheville, NC2:38:26.95 176053  534 WHEELS IN
17William Denter   Chichester, NY2:39:03.79 174663  1153 OVERLOOK
18Troy Romanowski   Stamford, CT2:50:33.64 181067  1083 NORTHEAST
19ANDREW MCALLISTER   2:57:49.58  518 IRISH MTB
DNFPeter Babins   Higganum, CTDNF 59501  434 COGWILD CY
DNFCHRIS STREMPEL   DNF  486 
DNFMathew Katz   Northfield, VTDNF 116957  709 TED WOJCIK

Men - EX - Master - 30-34

 Place NameCity, StateTime USAC #BibTeam
1SCOTT SIMMONS   2:11:30.50  1287 
2Chris Peariso   Amherst, WI2:16:11.82 139566  1076 GEAR N UP
3David Wilson   El Paso, TX2:17:23.66 38515  762 
4Joseph Stone   Dunbar, WV2:18:04.58 188650  1119 SP-IMPORTS
5Joseph McTague   Saratoga Springs, NY2:20:15.66 172647  445 NO ATLANTI
6Roland Meunier   Templeton, MA2:21:01.41 138682  917 BICYCLE AL
7Yale Iverson   Stow, OH2:21:05.43 125448  436 ROSE BIKE
8Thom Parsons   Wrentham, MA2:23:50.91 208960  1260 INDEPENDEN
9JAMIE PARKER   2:25:21.58  1170 ORBEA/COPP
10David Currie   Littleton, MA2:25:26.81 167624  690 HARPOON
11Matthew DeMeis   Pawtucket, RI2:28:28.08 88417  536 BIKEMAN.CO
12Daniel Hageman   Colchester, CT2:28:45.89 14584  689 SUNSHINE C
13Brian Kelley   Pawling, NY2:29:08.56 133393  621 HUDSON VAL
14Greg Waggoner   New York, NY2:30:38.97 171792  1253 BICYCLE RE
15ROBERT SCHAEFFER   2:31:58.81  1126 SHIRKS
16Brian Eckenroth   Burlington, VT2:32:01.76 117555  532 
17Foye Troute   Hixson, TN2:32:52.25 35970  897 SHIMANO
18Rick Nelson   Edgecomb, ME2:34:16.73 181467  1285 BIKEMAN.CO
19MIKE GALLAGHER   2:36:15.52  1272 TEAM MICHE
20Werner Freymann   Flourtown, PA2:36:32.18 151015  1144 SHIRKS BIK
21Robert Carmen   Simsbury, CT2:37:57.40 111810  834 BIKERSEDGE
22DAVID YACOBELLI   2:40:30.87  1286 
23Michael Sherlock   Staten Island, NY2:40:46.45 174415  747 BENNETTS
24Chris Baker   Morgantown, WV2:41:07.17 139227  677 
25Chad Mantz   Portsmouth, VA2:42:13.47 108315  1115 TITAN/DIRT
26Denis Lafaille   Bridgeport, CT2:43:24.71 146990  1073 DON'S CYCL
27Frank Doty   Westbrookville, NY2:51:56.04 161406  1125 BICYCLE DO
28Mark Nicoll   Indiana, PA2:52:54.37 75606  1204 ESSM/GPOA
29RICHARD HOFBAUER   2:55:00.82  1347 
30GABRIEL AROCENA   2:59:45.20  1211 NORTH EAST
31Michael Dawid   Bridgeport, CT3:05:37.82 155156  1086 K2 GRASSRO
32John Ormsby   Vernon, NY3:19:18.19 140052  1029 
33ROBERT PAKSI   3:28:46.85  1041 
DNFMichael Miles   Tuscaloosa, ALDNF 200538  576 BILLYS BIK
DNFJason LaPointe   Carbondale, CODNF 188873  579 A-JAX FACT
DNFCRAIG RICE   DNF  609 STRUCTURAL
DNFColby Moeller   Tucson, AZDNF 132047  1057 FSA/SATURN
DNFNICK RAMEY   DNF  1316 
DNFTristram Langford   Melrose, MADNF 203510  511 RAGE/HARPO
DNFMyron Baker Jr   Hamilton, NJDNF 175086  1107 TABLE ROCK

Men - EX - Master - 35-39

 Place NameCity, StateTime USAC #BibTeam
1Gerald Pflug   Connellsville, PA2:14:47.30 27999  1136 SCI-FIT/DI
2Kirk Buckman   Santa Rosa, CA2:14:54.01 134031  1071 REDWOOD EM
3Anthony Cipolla   Morris, CT2:16:13.03 139115  632 FIORDFRUTT
4E Matt Germon   Lincoln, VT2:23:59.30 158486  420 
5William Turner   Northboro, MA2:24:23.15 101153  765 LANDRY'S
6Michael Wonderly   Colchester, CT2:25:02.16 114677  767 COGWILD/CA
7Brian Rutter   Belchertown, MA2:27:32.51 168738  836 BERLIN BIK
8KERRY ROBBERT   2:29:25.54  1284 WHEELS IN
9Bradley Patches   Enfield, NH2:32:36.58 27387  730 GRETNA BIK
10Benjamin Moore   Bloomfield, CT2:32:51.97 159697  407 TEAM BERLI
11DAVID KAHL   2:32:55.52  801 TOWN CYCL
12David Wagoner   Warsaw, IN2:35:45.15 82334  639 CYCLE MAST
13Esteban Rodriguez   Woodside, NY2:36:03.88 153034  493 SIDS BIKE
14FRANCIS BLESSO   2:36:51.23  635 TEAM RAGE
15ART LERAY   2:37:01.19  512 BIKE ALLEY
16Robert McCarty   Morrisonville, NY2:39:10.23 147930  516 ROAR
17Rob Moran   Cary, NC2:39:25.07 89780  614 BTD/FUJI
18David McComb   Yoder, IN2:40:07.10 172316  409 TEAM KOEHL
19Michael Holt   Arlington, VA2:42:18.52 119107  567 QUANTICO M
20Terry Ritter   Royal Oak, MI2:42:55.39 135609  781 CITY BIKE
21John DeBitetto   Yorktown Heights, NY2:46:46.66 89638  681 GARY FISHE
22Mark Mahoney   Bethel, CT2:54:03.39 22175  652 BETHEL CYC
23Frank Cerra   Southington, CT2:55:13.94 143677  455 AZONIC/KEN
24John Meyerle   Monroe, CT2:57:33.33 174385  1206 TITUS CYCL
25Christopher Smith   Woburn, MA3:02:29.97 87494  404 RAGE/HARPO
26Russell Cadogan   Plymouth, MN3:21:52.54 129574  549 SIDS BIKE
27Keith Slyman   Piscataway, NJ3:23:10.92 131013  480 BIKE N GEA
DNFJuan Aracena   Dumont, NJDNF 119516  429 TEAM TREAD
DNFAndrew Campbell   Charleston ScDNF 169400  530 DOGFISH
DNFGreg Ferguson   Glassboro, NJDNF 11462  786 ESSM/GPOA
DNFDavid Virgili   Westfield, NJDNF 129580  1135 WATCHUNG W

Men - EX - Master - 40-44

 Place NameCity, StateTime USAC #BibTeam
1Samuel Wilcox   Glastonbury, CT2:14:13.73 38212  597 SEVEN CYCL
2Charles Miller   Cincinnati, OH2:20:48.56 59393  1079 BIO WHEELS
3Stephen Thaxton   Sissonville, WV2:22:42.03 35278  754 TEAM WV BO
4Marco Hellman   San Francisco, CA2:28:43.90 123885  1021 G6
5Leo Devellian   Topsfield, MA2:31:11.38 151853  1238 RAGE
6Andrew Holdsworth   San Francisco, CA2:31:46.23 145565  561 THIRSTYBEA
7EDWARD SMITH   2:32:05.33  746 ROAR
8Ken Welch   Hopewell Jct, NY2:36:15.85 37650  640 
9John Myers   East Point, GA2:38:24.67 164658  1117 VELO VOODO
10Bruce Saxton   West Suffield, CT2:40:43.10 31403  571 CUTTING ED
11Paul Nyberg   Goshen, CT2:42:30.46 82305  806 BENIDORM/E
12Glenn Giglio   Manchester, CT2:43:58.55 13215  1249 CVC PIG IR
13Dowain Ford   Aurora, WV2:44:32.46 214473  538 DEAN BICYC
14Scott Steurer   Kalamazoo, MI2:46:36.54 34064  403 WMCR/BREAK
15JOHN KELLER   2:48:31.25  510 LATERAL ST
16Josef Guggenberger   N Clarendon, VT2:50:34.32 173328  1191 
18PAUL MCNEIL   2:58:11.52  1150 
19Jay Smith   Charlotte, NC3:01:10.08 180625  742 JUST FRESH
20ARCADIO RAMIRIEZ   3:02:49.28  883 WHEELS IN
21Walter Fischer   Newbury, VT3:09:28.23 121411  699 
DNFJames Wilbur   Glen Rock, NJDNF 38201  490 RVCC
DNFChristopher Flagg   Westfield, MADNF 179600  664 COMPETETIV
DNFJerry Hutchinson   Tucson, AZDNF 17267  884 SPECIALIZE

Men - EX - Master - 45-49

 Place NameCity, StateTime USAC #BibTeam
1Robert Anderson   Mill Valley, CA2:21:25.25 1688  430 NOVADIGM/F
2Mark Luebbers   Delmar, NY2:25:18.73 21775  720 MERCURY WE
3Keith Sanders   Winter Park, CO2:29:24.53 31223  1015 GRAND SPOR
4Arthur White   Hohokus, NJ2:37:56.65 37936  471 RVCC/TREK
5Christopher Logan   Keene, NH2:42:37.17 21464  653 DOUGLAS/YA
6Steve Lietz   Saline, MI2:47:14.56 196791  655 STRUCTURAL
7Cary Hunter   Paeonian Springs, VA2:52:02.65 176403  1017 POTOMAC VE
8Ed Snyder   Ashburnham, MA3:00:45.83 181421  1254 
9Randy Tefft   Keene, NH3:20:46.43 100727  757 
DNFKarl Schindler   Tucson, AZDNF 100996  607 BSR/SMITH
DNFRobert Vaughan   Sharon, VTDNF 170260  941 SUNAPEE-BA
DNFMark Virello   Boston, MADNF 171561  1077 TEAM DAYTO
DNFDerek Griggs   Seabrook, NHDNF 120116  1256 RECYCLED G

Men - EX - Master - 50-54

 Place NameCity, StateTime USAC #BibTeam
1Roger Gillespie   Provo, UT1:36:13.44 13281  625 BIOGEN-IDE
2John Barmettler   San Jose, CA1:42:09.05 2610  544 SYCIP
3Raymond Wilson   Little Rock, AR1:42:40.76 38574  761 ORBEA
4Marcus Watters   Altamonte Springs, FL1:43:10.89 105245  591 SOUTHEASTE
5Paul Zarubin   Truckee, CA1:43:11.24 196952  491 MT LINCOLN
6Luther Livermon   Cary, NC1:49:56.91 186676  654 EC VELO
7James Argabright   Richardson, TX1:56:02.12 98324  443 NEBC/CYCLE
8Robert Hayssen   Racine, WI2:01:33.96 186713  431 VISION QUE

Men - EX - Master - 55-59

 Place NameCity, StateTime USAC #BibTeam
1Phillip Bannister   Putney, VT1:43:18.09 111633  428 PUTNEY/WES
2Steven Tiles   Grand Haven, MI1:43:59.06 112711  1265 T & Z BLUE
3Rick Sederberg   Batesville, AR1:46:25.01 171312  780 PARKSIDE/S
4George Delgado   Ellicott City, MD1:57:32.85 9119  1165 TREK
5John Warfel   Millersville, PA2:05:24.55 145457  478 SHIRKS BIK
6Dennis Curran   Wattsfield, VT2:08:17.53 8384  790 BIKEMAN
7James Carlson   Springfield, VA2:08:18.69 96832  1019 PVC
8David McElwaine   Canton, MA2:21:52.55 97574  517 NEBC/CYCLE
9William Sheldon   Woodstock, NY2:24:03.38 171804  1215 OVERLOOK
DNFKenneth Lutz   Haskell, NJDNF 86707  578 RVCC

Men - EX - Master - 60-64

 Place NameCity, StateTime USAC #BibTeam
1Charles Fleming   Rochester Hls, MI1:58:02.64 11808  694 OLD JOE RA
2William Humphreys   Old Lyme, CT2:03:19.11 82308  523 COGWILD/RO
3Philip Thompson   Clinton, NY2:38:21.92 35465  752 RISLEY COL
4Charles Goodrich   Southport, NC2:44:26.37 182799  529 
DNFTim Hagman   Woody Creek, CODNF 211830  1184 

Men - EX - Master - 65-99

 Place NameCity, StateTime USAC #BibTeam
1Charles Beristain   W Hartford, CT1:02:33.70 194152  1355 MERCURY BR
2Stan Morgan   Midlothian, VA1:18:14.46 143159  712 3 SPORTS
3Jerald Bliton   Beaver Falls, PA1:25:32.00 3956  426 TEAM TRI/K

Men - SP - Junior - 1-18

 Place NameCity, StateTime USAC #BibTeam
1ALEX HORWATH   1:36:42.81  957 CURTS CYCL
2ALEX COX   1:37:51.33  667 INDIANA CY
3Caley Fretz   Boulder, CO1:41:38.41 178443  1344 
4Worth Wolcott   West Suffield, CT1:42:41.95 191273  588 TEAM EDGE
5Bennett Brown   Houston, TX1:44:10.65 187726  634 RITCHEY NO
6Mark Lockwood   West Simsbury, CT1:50:17.12 180948  412 
7DUNCAN MCGOVERN   1:50:17.49  1230 RIDE 365
8HARRY PRECOURT   1:56:14.22  500 
9Patrick Isennock   Perry Hall, MD2:22:45.59 209360  1156 BLACK CAT
DNFDavid Garcia   San Antonio, TXDNF 194268  904 BICYCLE HE
DNFJonathan Foster   Saco, MEDNF 174650  1181 SMCC

Men - SP - Senior - 19-24

 Place NameCity, StateTime USAC #BibTeam
1Brian Penney   Middletown, CT1:39:10.07 209465  805 TEAM BERLI
2Aaron Christenson   Hillsboro, NH1:39:16.33 210923  818 
3ERIC MILLER   1:40:55.45  1419 WINDHAM MT
4MILES ERICSON   1:42:08.30  1442 
5STEVE AVERY   1:45:24.54  1220 
6CARL ARGOTA   1:53:16.02  1216 WA BIKE CE
7Randy Myers   Chester, CT1:58:39.54 187425  741 ROCKNROAD
8DANIEL FAMA   2:22:59.08  1388 
DNFBRIAN SAVERY   DNF  644 MIT
DNFJOSH AUSTIN   DNF  1357 UNIV OF NE

Men - SP - Senior - 25-29

 Place NameCity, StateTime USAC #BibTeam
1Todd Rennie   Charleston, WV1:39:29.92 210122  645 DIRTBEAN.C
2BRIAN ROSENE   1:42:17.50  1233 BIKE N GEA
3Doug Jenne   West Hartford, CT1:42:37.42 192813  467 WATCHUNG W
4Erin Rand   Plantsville, CT1:43:54.35 209955  735 BIKERS EDG
5BARRY PETZOLD   1:46:25.30  728 RAGE/HARPO
6Jason Shiers   Gorham1:49:33.27 209825  1381 BERLIN BIK
7NICHOLAS FORMONT   1:51:04.16  1373 OVERLOOK
8Richard Spiegel   Austin, TX1:56:37.20 211101  1398 TREAD BIKE
9JASON CHLOPECKI   2:10:32.97  422 
10Nick Zohdi   Germantown, MD2:14:23.29 114824  1326 GETTY RACI
11Aaron Fleming   Rockford, IL2:24:22.70 210500  1354 KAGELS BIK
DNFChristopher Barker   San Francisco, CADNF 204118  638 

Men - SP - Master - 30-34

 Place NameCity, StateTime USAC #BibTeam
1JOHN AYRE   1:41:54.00  1141 
2GUILLAUME LOIZE   1:42:16.95  1405 TEAM DEAD
3JONATHAN LONGLEY   1:42:31.11  931 
4CHRISTOPHER EVANS   1:43:25.61  787 
5KEN GREINER   1:44:51.04  563 LANDRYS
6Andrew Wilson   Boxborough, MA1:45:35.34 171496  1335 
7Michael Hadley   Bristol, CT1:47:43.85 98394  697 BIKERS EDG
8DARRIN OHANESIAN   1:50:15.67  1443 LEE KENNED
9Ian Strever   Lakeville, CT1:53:02.10 157752  778 
10Joe Policarpio   Bristol, CT1:53:44.57 135669  499 RUDY PROJE
11JOSEPH BULGER   1:53:54.48  1403 BIKE ALLEY
12JOE BELLIVEAU   2:02:45.86  460 
13CHRISTOPHER PATTI   2:07:54.90  584 PUMP RACIN
14Christopher Keczkemethy   Brooklyn, NY2:15:44.91 211840  1387 
15Leonardo Paredes   Jefferson, MA2:19:52.67 197968  1441 BIKE ALLEY
16CHRISTOPHER COOK   2:27:42.79  1408 
DNFJOHN LOCKNER   DNF  876 BUSTEDSPOK

Men - SP - Master - 35-39

 Place NameCity, StateTime USAC #BibTeam
1GLENN BEAUCHESNE   1:45:52.49  555 
2Terrence Hayden   New Haven, CT1:47:13.11 134090  803 
3Titus Leung   New York, NY1:48:36.70 206864  619 USI
4GREGORY TEESE   1:51:17.16  1194 
5Michael Wade   North Syracuse, NY1:56:56.01 171799  592 
6DODD LYLES   1:57:08.94  617 TEAM RAGE
7MICHAEL FRANK   1:57:09.29  1102 TABLE ROCK
8Mark Wilens   Mt Tremper, NY1:57:49.95 173396  485 TEAM OVERL
9Eric Policarpio   Bristol, CT1:59:21.04 159499  573 BIKERS EDG
10Jim Vreeland   Penfield, NY2:00:29.55 150995  783 SIGNS&LOGO
11SYLVAIN LOIZE   2:08:30.60  1407 TEAM DEAD
12JAMES WHOLEY   2:11:26.37  782 
13TODD HASKINS   2:12:27.96  520 NEWINGTON
14MILTON STROTHER   2:23:03.03  1218 WASHINGTON
15MICHAEL PAJARICCO   2:43:18.00  1399 BLED OR DE
DNFBarry Groton   Williamsburg, VADNF 177579  417 MYSTIC VEL
DNFMark Fasczewski   Greensboro, NCDNF 112145  452 SUCK CREEK
DNFAndrew Campbell   Charleston ScDNF 169400  530 DOGFISH
DNFMARIO ROJAS   DNF  1222 GORILLA RA
DNFBRIAN MIECZKOWSKI   DNF  1395 

Men - SP - Master - 40-49

 Place NameCity, StateTime USAC #BibTeam
1DOUGLAS PHILLIPS   1:43:56.24  498 
2Robert Letson   Broomfield, CO1:49:52.28 178769  1317 
3BRYAN BUDD   1:50:57.61  1391 TEAM CRUM
4Edward Rosipayla   Spencerport, NY1:51:44.24 178141  1380 SINGNANDLO
5CHRISTOPHER OKEEFE   1:52:51.43  1337 
6Walter Pacosa   W Springfield, MA1:55:22.71 183960  506 
7Matthew Scherp   E Hampton, CT1:57:49.40 202068  1164 TEAM EDGE
8Gerald Oleksak   Westfield, MA2:01:10.09 154663  1088 RICKS BIKE
9Clark Drake   Sunderland, MA2:01:33.46 168733  1338 BASICALLY
10SCOTT BOLES   2:01:44.80  1448 
11RON ANDERSON   2:03:42.19  543 
12MATTHEW JUROS   2:05:30.33  509 HARPOON
13Matthew Snow   Fairfield, CT2:06:46.18 112195  1243 DON'S CYCL
14Phillip Rice   Fredericksburg, VA2:07:29.61 195050  435 OLDE TOWN
15ROD CIARDULLO   2:09:11.64  812 SYNERGY FI
16Louis Vito   Plainfield, NJ2:10:31.68 171793  777 WATCHUNG W
17Sherwood Veith   Cobleskill, NY2:13:53.09 180917  593 SCHOHARIE
18John O'Keefe   2:21:26.80 159728  475 TEAM BERLI
19ALAN GROSS   2:26:27.00  1409 
20John Lockwood   West Simsbury, CT2:41:10.00 175524  1200 EASTER BLO
DNFRichard Mourey   East Hampton, CTDNF 94811  433 RAINBOW CY
DNFDANIEL DUPREZ   DNF  792 TEAM CRASH

Men - SP - Master - 50-99

 Place NameCity, StateTime USAC #BibTeam
1MIKE DONOHUE   1:57:37.36  841 PUTNEY WES
2Ronnie Poplar   Wilmington, VT2:08:48.16 47301  496 
3MARK KELLER   2:17:28.94  442 TEAM RAST
4ROBERT CARLETON   2:34:24.00  1143 
5BRUCE COX   2:44:20.00  631 INDIANA CY
DNFRobert O'Donnell   Bristol, CTDNF 200776  740 

Men - BG - Junior - 1-10

 Place NameCity, StateTime USAC #BibTeam
1PETER STRIEGEL   17:21.06  774 TOWN CYCLE
2TREVOR KAHL   19:08.40  800 TOWN CYCLE
3BROOKS CURRAN   19:24.60  810 
4LANE DRUMMEY   20:24.00  793 MOUNT SNOW
5ANDREW PARSONS   20:59.00  505 MOUNT SNOW

Men - BG - Junior - 11-12

 Place NameCity, StateTime USAC #BibTeam
1Cai Clothier   Millstone, WV14:07.15 209853  1176 TEAM BON J
2MORGAN JONES   16:37.18  1174 SHIRKS
3CARSON STROTHER   17:36.40  1217 
4WILL GALLAGHER   18:35.30  1232 
5THOMAS WILLIAMS   19:35.50  589 
DNFCHRIS OVERTON   DNF  1053 
DNFJAMES CARLUCCI   DNF  1092 

Men - BG - Junior - 13-14

 Place NameCity, StateTime USAC #BibTeam
1Matthew Keiper   Warrenton, VA0:52:17.95 156519  558 WASHINGTON
2Ramsay Fretz   Burlington, VT0:57:34.15 213340  1343 EARLS
3Cai Clothier   Millstone, WV1:02:46.76 209853  1176 TEAM BON J
4Chris Stern   West Milford, NJ1:06:46.62 200189  595 TOWN CYCLE
5CHAD CONNELL   1:12:42.40  1366 
6Andy Gallagher   Newfoundland, NJ1:14:07.03 213824  1251 TOWN CYCLE
7Eric Roth   Bethany, CT1:21:36.75 192185  494 TEAM SUPER
DNFBrandon Lee   Mission Viejo, CADNF 169394  723 TREK/VW/JB
DNFSam Teasdale   Williston, VTDNF 206383  1066 BLISS RACI
DNFWILLIAM GALLAGHER   DNF  1232 

Men - BG - Junior - 15-16

 Place NameCity, StateTime USAC #BibTeam
1Bradford Perley   Brevard, NC0:48:14.31 192115  737 MAINE COAS
2Taylor Kahl   West Milford, NJ0:50:08.78 165853  1352 TOWN CYCLE
3NATHAN FUCHS   0:52:45.70  662 
4COREY CONNELL   0:52:49.69  1365 
5Derrick Deming   S Burlington, VT0:54:43.37 190500  1062 BLISS RACI
6Jonathan Keiper   Warrenton, VA0:57:28.77 156521  564 WASH BIKE
7PETER MCMAHON   0:57:59.77  1404 
8RYAN FLEMING   0:59:22.87  1359 
9MARC HAMMOND   0:59:35.30  1304 TEAM CMI/C
10MATT GURD   1:02:07.05  1203 MICHIGAN Y
11Paul Bickford   Chester, CT1:03:29.61 200820  1329 CW-X/COMPE
12TYLER COHEN   1:06:23.60  553 
13PAUL PEASLEE   1:08:14.21  1358 BIKE BARN
14TYLER BOWES   1:12:06.48  1447 
DNFCANIO CARLUCCI   DNF  1080 
DNFPATRICK OBRIEN   DNF  503 

Men - BG - Junior - 17-18

 Place NameCity, StateTime USAC #BibTeam
1Brooks Chamberlin   Darien, CT0:59:34.62 170389  424 
2Arron Kopp   Schuylerville, NY1:08:12.89 181259  701 
3ERIK DAVITT   1:37:15.75  458 

Men - BG - Senior - 19-24

 Place NameCity, StateTime USAC #BibTeam
2ADAM BRADLEY   0:56:25.99  1400 
3MICHAEL RICE   1:13:03.58  734 LINCOLN LO

Men - BG - Senior - 25-29

 Place NameCity, StateTime USAC #BibTeam
1ROBERT GIOLITO   0:56:25.89  1422 
2ANDREW STACKHOUSE   1:00:17.31  1367 RAGE/HARPO
3KEVIN SMTIH   1:09:16.52  1446 
4COREY NEWELL   1:19:59.47  1314 GUTTY RACI

Men - BG - Master - 30-34

 Place NameCity, StateTime USAC #BibTeam
1AARON BIGIO   1:02:56.86  1154 
2HOWARD LEE   1:04:53.23  1113 DARK HORSE
3COLIN HEWARD   1:04:54.93  802 
4KEVIN DEWHURST   1:07:26.05  448 TEAM DIDIO
5Scott Hendrickson   Phoenixville, PA1:08:41.63 244180  438 
6BRIAN SIMMONS   1:25:34.74  779 
DNFDAN MCARDLE   DNF  1011 

Men - BG - Master - 35-39

 Place NameCity, StateTime USAC #BibTeam
1MICHAEL WOODWARD   0:52:06.46  596 
2LAWRENCE WELLS   0:54:59.75  885 ELEVATE CY
3Joseph McGrath   Poughkeepsie, NY1:00:47.70 101235  507 
4James Vogh   Methuen, MA1:02:26.62 193760  1129 
5ROB PRICE   1:04:41.21  572 
6DANIEL SCHOWERER   1:05:36.47  830 
7MICHAEL STROBEL   1:14:44.98  759 W.M.R.

Men - BG - Master - 40-49

 Place NameCity, StateTime USAC #BibTeam
1JOHN TALOUMIS   1:00:15.94  758 
2MARK FITZSIMMONS   1:02:10.22  695 THE SOFA K
3Mihaly Deak   Volente, TX1:02:40.26 182578  795 LANDRYS
4Eric Marcus   Larchmont, NY1:03:30.68 136740  587 
5CHRISTOPHER KOH   1:05:22.18  1411 
6ZACHERY LEAVITT   1:06:34.29  656 
7William Russell   Russell, MA1:13:28.36 207737  1067 
8WARREN BABSON   1:15:08.80  1361 
9JAMES GAMBINO   1:16:28.92  1362 
10Douglas McBournie   Colchester, CT1:26:00.58 211976  1281 
11JEFFREY KOCH   1:37:20.76  1278 TEAM CMI
12Harry Gill   Harrisburg, PA1:40:38.51 209464  418 TEAM HARRI

Men - BG - Master - 50-99

 Place NameCity, StateTime USAC #BibTeam
1JOHN RICE   1:02:48.85  1396 BICYCLES U
2Paul Roth   Bethany, CT1:20:07.27 141080  495 TEAM GO FA
3MICHAEL ISENNOCK   1:45:40.60  1157 
DNFRonald Romanowski   Marlborough, CTDNF 98823  474 
DNFPeter Hollis   Hillsborough, NCDNF 208194  660 EC VELO

Women - U23 - 1-23

 Place NameCity, StateTime USAC #BibTeam
1Caitlyn Tuel   Golden, CO2:33:47.53 168652  131 TREK EAST

Women - Pro - Senior

 Place NameCity, StateTime USAC #BibTeam
1Willow Koerber   Durango, CO2:06:31.81 77103  104 RLX RALPH
2Jimena Florit   Burlington, CT2:09:46.10 84329  101 RLX RALPH
3Shonny Vanlandingham   Captain Cook, HI2:12:59.72 89955  117 LUNA WOMEN
4Kelli Emmett   Plymouth Mi2:14:10.00 156146  113 SPECIALIZE
5KIARA BISARO   2:17:25.30  112 GEARSRACIN
6CHRISSY REDDEN   2:18:42.71  102 SUBARU-GAR
7GRETCHEN REEVES   2:19:17.17  118 ROCKY MTN
8KERRY BARNHOLT   2:19:38.94  151 SUBARU-GAR
9KATERINA HANUSOVA   2:19:39.75  105 LUNA WOMEN
10KAREN DEWOLFE   2:19:53.73  110 CANNONDALE
11DARA MARKS-MARINO   2:20:23.16  106 FORD CYCLI
12MELISSA THOMAS   2:21:28.65  148 TOKYO JOES
13LEA DAVISON   2:27:00.62  137 TEAM DEVO/
14Judy Freeman   Littleton Co2:27:12.84 182719  158 CANNONDALE
15ZEPHANIE BLASI   2:27:56.99  140 RENO WHEEL
16Tonya Laffey   Altadena, CA2:28:26.24 121249  126 MTBCHICK.C
17NIKI GUDEX   2:30:18.67  155 INTENSE CY
18HEATHER IRMIGER   2:30:28.76  121 TOKYO JOES
19ERIN WINTER   2:31:44.29  134 ORBEA/COPP
20Katherine Sherwin   Heber City, UT2:32:22.36 173633  129 CANNONDALE
21ALICIA HAMILTON   2:32:38.92  136 GIANT/ DAR
22JENNIFER SMITH   2:32:48.89  115 WV BONJOVI
23SARA BRESNICK   2:33:26.11  123 FORD CYCLI
24Nina Baum   Albuquerque, NM2:37:13.77 180986  124 TITUS
25Sarah (Sally) Warner   Stow, MA2:37:42.00 60346  153 BIOGEN-IDE
26ABIGAIL HIPPELY   2:38:21.34  164 KLEIN MAVE
27Lisa Matlock   Arvada, CO2:39:34.13 122014  125 FORD CYCLI
28ANNEMARIE HUISMAN   2:39:51.82  149 CANNONDALE
29Laura Anderson   Crested Butte, CO2:40:35.47 165743  141 AMGEN
30SARAH KERLIN   2:41:05.08  103 ANOTHER BI
31JENNIFER GERSBACH   2:41:33.92  147 TOKYO JOES
32Becca Blay   Boulder, CO2:42:41.10 174258  138 TEAM DEAN
33Ruby Evans   Redondo Beach, CA2:45:32.54 107815  154 HELENS CAN
34JENNIFER WILSON   2:45:45.98  139 
35KAREN POTTER   2:46:00.37  143 YIPPEE RAC
36Theresa Richardson   Davidsonville, MD2:46:56.88 170227  135 CANNONDALE
37MANDI RIDDLE   2:46:59.95  145 BON JOVI/
38SHARI HAUSBECK   2:47:57.81  156 ROCK SHOX/
39KIMBERLY FLYNN   2:51:16.26  180 DEFEET
40SUSAN SCHUBEL   2:53:19.02  144 GIAN/ DAR
41ROBIN MCGEE   2:59:52.22  130 JACKSON HO
42Rebecca Cleveland   Green Bay, WI3:00:13.92 100571  132 THE BIKE H
43LISA PECK   LAPPED  152 BIOGEN-IDE
44KATE LYNCH   LAPPED  165 MARMOT/JAC
45PATTY SMITH   LAPPED  157 JUST FRESH
DNFTRISH SINCLAIR   DNF  107 GEARSRACIN
DNFSUSAN JUEDES   DNF  133 TEAM BIKE
DNFSABRA DAVISON   DNF  142 TEAM DEVO
DNFSUSIE FIORE   DNF  146 COLAVITA B
DNFDARCY CORNELL-FOLEY   DNF  150 DANSKO WHE
DNFJULIE ZIMMERMAN   DNF  159 EPICROOTS/
DNFKRISTY MANTZ   DNF  161 TITAN DIRT

Women - EX - Junior - 1-18

 Place NameCity, StateTime USAC #BibTeam
1Hilary Wright   Park City, UT1:53:47.03 162477  1339 BALANCE BA
2Stephanie White   Bedford, NH2:02:45.97 181386  768 DANSKO/WHE
3Antonia Musto   Ada, MI2:04:06.62 213753  1197 YOUTHCYCLI
4Chenoah Hendershot   Mears, MI2:08:05.34 174025  693 CANNONDALE
5Kristina Henne   Park City, UT2:17:00.30 163331  521 MTBCHICK.C
6Chantel Shoemaker   Durango, CO2:23:01.45 170692  947 RITCHEY NO
DNFStephanie Schlaack   Mckinney, TXDNF 169043  643 BICYCLE HE
DNFKetura Hendershot   Mears, MIDNF 174026  707 CANNONDALE

Women - EX - Senior - 19-24

 Place NameCity, StateTime USAC #BibTeam
1Kathleen Weber   Austin, TX2:58:18.06 144579  763 TEAM ORTHO
2Laura Bowles   Asheville, NC3:02:33.11 199307  1213 DIET CHEER
3Kate Riedell   Oakland, CA3:26:40.49 188596  437 HAYES ZOO
4Onawa Pelham   Durango, CO3:29:55.07 207459  991 WINDHAM MT
5Bess Arendall   Redwood City, CA3:30:55.30 204207  556 ABERDEEN R

Women - EX - Senior - 25-29

 Place NameCity, StateTime USAC #BibTeam
1ANDA CARUTA   2:47:19.35  950 RHINO
2Jennifer Ringquist   Park City, UT2:47:59.98 170366  1283 
3Kymberli Lulu   Santa Rosa, CA3:08:00.30 198504  468 SOULCRAFT
4Danielle Musto   Grand Rapids, MI3:09:47.35 213525  1151 SLINGSHOT
5Shannon Holden   Spokane, WA3:16:45.33 151124  623 WHEELSPORT
6Jessica Nelson   Longmont, CO3:41:45.24 199823  1159 MTBCHICK.C
DNFJESSICA WOODARD   DNF  1262 WHEELS IN
DNFPaula Burks   Chattanooga, TNDNF 5542  915 

Women - EX - Master - 30-34

 Place NameCity, StateTime USAC #BibTeam
1Mary Lynn Wikar   Vernon, CT3:02:08.89 150092  470 BERLIN BIK
2Cheryl Olson   Delton, MI3:21:41.44 140154  732 ORBEA
3ANNA MILLENSON   3:24:35.60  508 TEAM OVERL
4Kerri Moore   Bloomfield, CT3:26:41.40 159698  406 BERLIN BIK
5Rebecca Ryan   Barre, VT3:31:41.40 185264  1155 
DNFErin Duggan   Avon, CTDNF 189709  954 BERLIN BIK
DNFAmy Bowen   Santa Cruz, CADNF 194774  1292 AMGEN

Women - EX - Master - 35-39

 Place NameCity, StateTime USAC #BibTeam
1HEATHER ROBERTS   2:55:10.43  1152 OVERLOOK
2Roxanne Prescott   Newfane, VT3:00:45.48 103077  804 TM MOUNT S
3Sami Fournier   Bend, OR3:07:11.47 152592  1106 VELO BELLA
4Kathleen Shaw   East Hartland, CT3:30:07.62 109094  606 BENIDORM/C
5LAURA JENSEN   3:30:55.27  1187 
DNFLisa Barnard   Phoenix, AZDNF 195511  1127 TITUS CYCL

Women - EX - Master - 40-44

 Place NameCity, StateTime USAC #BibTeam
1Linda Holzinger   Castle Rock, CO1:52:17.73 213491  1081 
2Emmy Monahan   Hampden, ME2:02:46.16 190556  717 WWW.BIKEMA
DNFShari Hymes   Sag Harbor, NYDNF 17310  846 BIKE HAMPT

Women - EX - Master - 45-49

 Place NameCity, StateTime USAC #BibTeam
1Ellen White   Hohokus, NJ2:15:25.13 97355  477 

Women - EX - Master - 50-54

 Place NameCity, StateTime USAC #BibTeam
1Lydia Barter   N Brookfield, MA2:04:28.32 2763  1149 TEAM BICYC
2Margaret Thompson   Clinton, NY2:21:24.24 35453  753 AEGIS/MACK
3Kathy Burns   Gardiner, NY3:05:26.61 12456  633 SANTACRUZ/

Women - SP - Junior - 1-18

 Place NameCity, StateTime USAC #BibTeam
1Jessica Thomas   Lilburn, GA1:01:05.78 196708  594 BIKETOWN U
2Chloe Jackson   East Hampton, CT1:15:09.14 181210  706 

Women - SP - Senior - 19-29

 Place NameCity, StateTime USAC #BibTeam
1Deanna Weber   Fort Worth, TX0:59:30.22 202645  769 PEDAL MASH
2Caitlin Trahan   Oakland, CA1:01:41.89 199333  773 
3Anna Kelso   Takoma Park, MD1:02:28.70 189154  1199 LOCOS
4ABBIE BRISCOE   1:03:29.99  1371 

Women - SP - Master - 30-39

 Place NameCity, StateTime USAC #BibTeam
1MAURA BYRNE   1:12:28.25  672 
2Sharon Halley   Voluntown, CT1:18:48.11 143500  465 PFIZER CYC
3Sarah Manning   1:21:50.76 196005  714 CITY BIKE

Women - SP - Master - 40-99

 Place NameCity, StateTime USAC #BibTeam
1MICHELLE WILSON   1:06:25.96  1406 TEAM RAGE/
2DAWN KACZOR   1:07:59.96  414 HARPOON
3Cosby Gibson   Richfield Springs, NY1:19:23.85 151352  569 
4Mary Longhofer   Portland, ME1:33:56.26 189989  1410 BIKEMAN.CO

Women - BG - Junior - 1-10

 Place NameCity, StateTime USAC #BibTeam
1Elizabeth White   Bedford, NH16:13.55 209806  785 NECSA
2SAMANTHA FORD   16:35.10  1031 
3STEPHANIE PARSONS   19:59.00  502 MOUNT SNOW

Women - BG - Junior - 11-12

 Place NameCity, StateTime USAC #BibTeam
1MARIA CARLUCCI   15:33.10  1093 

Women - BG - Junior - 15-16

 Place NameCity, StateTime USAC #BibTeam
1Emily Curry   Sturbridge, MA1:03:45.55 210916  1393 
2CAITLIN CURRAN   1:05:26.78  816 BIKEMAN
3Ashley Drake   Sunderland, MA1:10:37.64 186383  1370 SANTA CRUZ
4JAMIE TALOUMIS   1:17:08.65  824 
5Katherine Morgan-Fiser   Pitman, NJ1:25:03.45 206595  1128 ACTION WHE
DNFParker Tyler   Salt Lake City, UTDNF 213764  1038 PUTNEY/WES

Women - BG - Senior - 19-29

 Place NameCity, StateTime USAC #BibTeam
1Laura Vedral   Minneola, FL1:05:35.27 194001  1385 
2Stephanie Castonguay   Chula Vista, CA1:06:04.24 210919  675 BIKES UNLI
3JOANN GUZMAN   1:13:43.34  1114 
4NICOLE OUELLETTE   1:20:07.88  1300 

Women - BG - Master - 30-39

 Place NameCity, StateTime USAC #BibTeam
1ANA RUEDA   1:07:30.38  1421 
2SHAWNA RILEY   1:27:04.92  1360 
3SUE HASTEN   1:44:30.89  562 

Women - BG - Master - 40-99

 Place NameCity, StateTime USAC #BibTeam
1Vicki Koch   West Falls, NY1:22:48.49 200770  1308 TEAM CMI/C
2VERONICA SASSU   1:24:05.73  1275 
DNFSTEPHANIE COLON   DNF  535 
DNFCATHY POPLAR   DNF  583 MOUNT SNOW
DNFTheresa Carr-Spannring   Park City, UTDNF 189583  671 

Report missing or incorrect license numbers

Volkswagen
SpySierra NevadaShimanoUSACDFCUOREBonk Breaker
UCI USA Cycling is the official governing body for all disciplines of competitive cycling in the United States. The 501c3, membership-based organization aims both to achieve sustained success in international cycling competition and to grow competitive cycling in America while delivering an exceptional customer experience.
View Children's Online Privacy Protection Policy
US Olympic Committee